RH
35 29 30 38 46 48 51 51 46 48 46 45 46 43 41 38 36 36 39 45 50 54 54 59 53 52 50 46 42 38 38 42 47 49 57 72 81 84 86 81 68 76 78
26 31 28 36 45 47 51 53 50 50 49 47 47 45 43 42 40 40 41 50 56 60 58 52 51 50 49 47 53 42 41 44 49 56 64 69 76 78 84 82 68 76 77
27 29 27 34 43 48 51 55 53 52 54 50 50 49 45 46 44 43 43 50 60 64 62 56 54 56 56 58 58 56 61 49 54 54 56 73 77 75 75 64 73 75 71
27 28 26 32 40 48 52 55 54 56 60 53 53 52 48 48 47 46 46 51 60 70 68 62 60 58 58 58 58 61 74 75 71 81 80 64 60 71 58 61 76 76 68
28 29 27 33 39 46 52 54 55 62 65 56 56 55 51 51 52 51 50 51 57 77 77 66 60 60 58 58 57 63 70 76 80 83 82 86 50 47 48 51 58 74 76
33 32 31 32 35 43 53 57 60 68 68 59 58 57 54 54 54 54 55 55 57 64 74 66 60 61 60 58 60 62 69 73 73 70 75 78 63 46 51 69 72 76 70
45 37 34 33 35 40 48 57 65 70 70 63 62 60 57 58 56 57 58 60 62 59 56 67 71 62 64 71 65 60 65 66 66 73 70 72 62 56 69 74 69 54 54
51 48 39 37 38 41 45 57 66 71 71 68 67 63 61 60 58 57 58 62 63 63 60 55 57 64 69 66 66 63 61 58 58 59 72 65 66 55 68 71 62 54 54
54 56 53 41 42 46 50 56 63 70 74 73 72 65 64 61 59 58 61 63 70 70 67 63 60 58 55 55 52 51 49 43 53 51 64 38 73 55 54 65 65 63 58
66 67 61 48 49 50 54 57 65 71 76 78 72 64 65 61 59 61 62 66 74 84 84 81 74 67 61 58 57 54 51 46 50 65 68 61 74 67 58 68 63 67 69
76 73 72 57 57 54 54 59 68 75 80 75 65 65 63 61 59 62 62 66 74 80 82 79 82 79 73 65 61 60 60 61 64 81 69 73 78 76 66 67 66 71 78
72 76 68 67 62 61 60 56 59 66 68 63 64 64 63 62 71 83 80 79 86 90 92 87 89 82 72 70 74 79 80 81 85 83 76 79 70 73 73 63 71 76 84
73 77 74 74 68 66 80 63 59 62 66 66 65 65 66 70 92 93 90 99 92 85 86 66 75 93 90 76 80 77 86 90 84 81 70 63 75 75 77 76 80 87 89
62 74 77 77 74 70 80 74 64 65 65 66 68 77 84 89 91 89 86 85 82 68 66 73 69 75 99 82 79 90 92 90 93 87 76 70 72 81 83 92 94 98 100
58 67 76 74 74 76 78 72 64 70 74 77 80 88 95 92 89 84 81 86 83 78 56 53 58 68 91 81 81 85 88 88 88 98 89 76 73 80 88 96 99 99 100
52 60 66 65 66 63 71 74 74 79 84 85 89 86 88 85 84 85 81 76 68 59 56 53 64 81 87 79 82 86 86 85 87 99 99 98 91 90 98 100 99 100 99
49 57 62 64 68 63 69 75 76 82 82 83 83 86 83 85 84 88 78 74 66 69 61 51 57 74 81 88 85 92 91 93 100 96 98 100 99 100 100 99 88 98 100
54 62 63 68 70 68 72 75 80 82 79 79 82 85 87 87 87 83 84 72 52 56 73 79 74 77 80 92 94 97 98 100 99 94 92 94 97 99 100 100 91 96 99
44 67 67 69 71 72 75 78 76 78 82 82 86 91 93 93 91 87 75 79 83 79 75 71 74 71 83 96 98 98 97 99 98 100 99 99 100 100 100 99 92 97 99
63 69 73 72 77 79 81 78 78 83 87 84 88 92 94 90 80 68 72 63 70 66 67 72 71 72 84 88 100 100 99 99 100 99 100 93 98 96 95 93 96 98 93
94 86 88 87 88 84 86 90 90 91 96 94 91 90 90 74 68 72 63 58 64 69 74 74 80 79 93 87 89 100 100 100 99 99 100 96 92 92 90 87 86 91 90
100 100 94 91 96 95 88 89 88 94 98 90 89 86 78 70 64 59 62 63 74 76 75 73 77 82 84 82 83 93 99 100 99 99 100 100 98 96 95 85 81 77 88
99 99 98 98 98 99 95 96 98 97 97 95 94 89 79 71 65 68 66 62 64 62 65 67 70 80 82 88 83 80 98 97 98 100 99 97 94 92 92 82 79 73 77
99 99 99 98 98 100 99 98 95 93 93 91 84 79 70 72 73 61 59 53 53 63 66 67 65 63 69 78 76 74 82 79 95 96 97 97 94 90 85 84 82 80 77
97 99 99 99 100 100 100 95 93 90 86 80 76 75 82 82 71 57 59 64 59 55 59 62 68 66 67 74 70 68 65 79 81 84 91 95 97 92 88 84 81 80 80
90 98 100 100 100 100 98 91 88 81 78 76 79 84 81 73 64 65 62 60 63 67 69 65 66 71 73 72 70 67 67 68 74 83 87 91 92 91 90 85 80 83 82
Wind_Speed
28 27 23 20 18 19 21 19 18 15 15 13 12 10 11 11 12 12 12 12 11 11 11 11 11 11 12 14 14 15 15 16 17 19 20 19 16 15 17 12 15 17 17
33 27 23 21 19 19 21 20 18 16 15 14 12 11 10 10 10 10 11 10 10 10 10 10 11 11 12 13 14 14 15 16 16 17 17 17 15 13 11 13 15 15 15
34 29 23 21 20 20 21 20 19 17 15 14 12 10 10 9 9 9 9 9 9 9 8 8 9 11 11 11 12 13 14 15 16 15 13 12 14 15 13 11 15 14 15
32 29 25 22 21 20 21 20 19 17 15 15 13 10 10 9 8 8 8 8 8 7 7 7 8 9 9 9 9 9 10 10 11 18 12 7 9 9 10 11 11 12 13
30 28 26 23 20 20 21 20 19 17 15 15 14 11 10 9 8 7 7 7 6 7 6 5 6 7 8 7 6 5 5 4 3 4 4 5 6 9 9 10 10 11 11
26 26 25 22 20 19 19 19 18 17 16 16 15 13 11 9 8 7 6 5 5 5 4 4 4 5 5 4 3 2 1 1 5 8 5 9 9 10 10 10 9 10 10
21 22 23 21 19 18 18 18 18 17 16 16 15 13 11 9 8 6 6 5 4 3 2 3 4 4 4 4 3 4 5 5 8 12 7 15 7 2 8 10 8 8 10
23 21 20 19 19 18 17 17 17 17 16 16 15 13 11 9 8 7 6 5 4 4 3 3 4 5 6 6 6 6 7 8 9 7 6 6 6 8 9 10 10 10 10
24 22 21 21 19 17 16 16 16 17 16 15 14 13 11 9 7 7 6 5 4 4 4 6 7 8 8 9 8 8 8 9 9 8 7 11 21 16 12 14 12 11 11
18 15 18 21 20 18 17 16 16 16 16 16 14 13 11 10 8 8 6 5 4 4 6 9 9 11 10 9 8 7 8 9 8 8 2 11 14 12 10 15 14 12 11
17 14 12 20 19 18 17 16 16 16 16 16 15 14 13 11 10 8 7 6 5 5 8 12 15 14 14 12 9 9 9 10 11 9 1 9 4 14 16 14 11 12 11
25 22 16 21 20 18 18 18 17 17 17 17 16 15 14 12 8 6 5 5 4 4 4 10 21 24 20 15 9 9 11 11 11 9 3 11 8 19 18 16 13 14 13
30 24 21 21 19 19 17 18 19 18 17 16 15 15 13 10 8 9 4 8 6 6 3 5 28 27 30 13 10 10 5 6 9 6 8 11 14 16 16 14 15 14 13
34 30 27 24 22 20 20 18 18 19 17 18 17 13 10 11 12 12 10 12 12 9 11 7 2 31 17 8 6 2 3 5 6 8 4 2 7 11 13 15 15 14 14
33 35 32 27 25 23 16 21 15 18 19 17 15 15 13 15 13 12 12 9 4 10 6 3 7 4 11 2 4 4 7 9 9 10 7 5 4 5 7 10 16 18 18
33 37 35 29 26 25 17 17 19 22 22 21 21 20 16 15 14 13 11 7 4 9 6 5 7 6 8 3 6 8 8 8 9 8 9 7 5 7 14 22 20 17 15
35 38 37 32 27 23 16 15 17 20 23 22 19 15 13 11 8 7 6 6 12 8 6 4 3 5 4 9 8 8 7 8 9 8 10 15 19 22 19 17 13 11 11
22 36 37 32 27 24 20 15 14 14 13 13 12 12 11 9 9 7 6 5 3 6 2 4 7 9 11 10 10 9 7 6 5 7 7 7 13 16 16 13 9 10 13
17 33 36 33 30 26 22 18 12 11 13 13 10 9 10 9 7 5 3 6 7 6 5 5 9 6 9 12 12 10 7 8 7 7 10 11 12 12 16 15 14 13 11
25 33 33 30 29 26 23 20 16 14 12 11 11 9 10 8 4 5 6 6 7 7 5 3 8 8 11 12 13 10 7 6 7 7 10 16 11 9 7 7 9 12 11
22 29 28 27 24 25 23 22 19 17 15 12 9 10 9 8 8 8 8 9 7 6 5 5 8 12 14 15 13 10 7 6 7 7 8 9 12 9 5 4 6 7 10
14 18 21 21 22 21 23 22 22 20 14 11 10 11 9 9 11 11 8 7 8 7 5 4 4 7 4 13 4 6 3 2 7 8 6 8 11 12 14 7 7 10 10
9 11 16 19 21 22 22 21 20 16 17 14 12 10 10 11 10 8 7 7 6 6 5 3 3 3 3 9 7 2 2 2 3 6 8 10 9 12 13 9 7 11 12
10 14 17 19 21 21 22 24 27 24 19 13 13 13 12 10 7 7 7 6 4 3 5 5 4 5 4 5 8 5 13 3 3 2 5 9 10 11 12 14 11 9 11
15 17 18 19 20 22 24 23 25 18 14 12 16 13 11 9 8 8 6 4 3 3 2 2 3 4 6 6 4 3 6 4 5 2 2 3 13 15 15 14 15 10 8
15 17 19 20 21 22 21 21 19 17 18 17 17 15 13 10 10 8 6 6 4 3 3 3 5 6 5 6 5 5 3 1 4 4 2 2 4 10 16 17 17 15 11
Wind_Direction
150 154 159 155 152 154 159 158 155 151 149 143 130 115 103 95 90 87 83 84 87 92 99 103 105 106 107 107 104 104 106 108 112 114 114 112 108 112 105 122 110 108 110
154 154 159 157 154 155 159 161 159 156 155 153 143 129 115 105 100 94 90 87 88 91 96 102 106 109 111 109 104 106 107 109 109 113 114 110 108 119 141 126 115 113 114
152 155 159 159 158 158 159 161 162 161 159 158 150 139 128 117 108 101 96 92 87 90 94 99 106 111 112 110 110 111 107 112 111 110 109 115 114 113 118 119 120 120 119
153 156 160 163 161 159 161 163 164 163 162 164 159 151 140 132 126 118 108 99 94 92 95 104 115 121 120 118 118 121 118 115 129 130 100 108 130 131 123 124 124 119 125
158 161 162 162 162 162 163 164 165 166 167 168 166 161 154 146 139 129 122 114 105 102 104 116 130 136 135 133 134 133 125 125 164 223 235 176 157 136 133 132 135 128 130
162 164 163 164 163 161 163 166 168 170 171 172 172 169 165 158 152 144 133 126 118 115 123 129 145 157 159 157 173 185 186 349 344 347 8 196 189 148 144 133 143 140 141
156 165 169 167 165 163 165 169 171 172 174 175 175 173 171 166 158 155 154 157 154 154 166 169 177 190 208 235 235 261 295 347 356 10 133 171 151 160 159 157 154 153 150
156 165 174 174 171 168 167 168 172 174 176 177 176 177 177 174 173 177 180 177 194 206 210 225 223 233 248 256 269 276 296 321 339 10 341 164 235 206 197 174 171 158 159
160 167 172 178 177 172 171 169 174 176 177 178 178 181 182 181 186 197 200 208 212 243 257 252 250 249 249 260 269 289 299 303 324 352 306 285 207 212 190 187 180 167 167
150 161 176 180 180 175 174 173 175 176 177 178 183 187 183 193 205 214 218 220 235 262 284 280 269 262 259 261 273 282 291 296 324 345 352 210 222 216 204 194 182 179 176
153 160 174 182 180 179 179 174 177 179 181 183 189 190 195 204 212 222 234 235 232 254 284 296 289 276 271 267 270 281 288 305 321 323 190 195 171 239 196 208 201 185 186
171 167 176 175 182 183 184 185 184 186 188 192 194 199 203 211 208 228 233 229 239 272 286 323 312 296 281 275 296 305 301 326 317 315 185 170 188 214 225 213 206 192 183
173 166 169 165 175 185 187 192 194 196 193 197 203 208 212 206 198 221 221 203 198 228 324 269 285 286 275 274 297 308 321 320 321 302 286 226 226 214 207 196 198 189 187
175 172 171 166 164 174 189 192 198 198 202 204 207 204 200 194 198 209 200 212 216 124 53 98 65 320 299 296 280 140 23 24 19 354 17 121 214 196 192 184 178 175 166
169 171 171 169 169 173 199 189 196 194 199 194 193 200 192 200 205 209 221 222 228 274 302 259 317 163 339 258 98 73 40 23 7 27 65 85 140 161 161 165 147 143 140
163 170 170 173 169 170 174 202 199 199 198 195 184 187 196 208 217 214 212 232 330 329 306 247 160 115 200 190 88 66 48 42 25 50 85 99 113 119 124 126 121 117 121
165 168 168 171 165 170 168 149 141 143 155 165 176 183 195 206 220 204 209 284 315 279 265 149 216 230 196 115 84 66 42 39 73 75 94 107 119 120 122 116 111 115 111
157 160 164 165 163 173 175 167 146 151 169 173 175 179 176 187 197 199 301 308 124 110 138 87 84 106 134 111 97 90 76 74 96 125 125 123 133 133 122 117 123 114 114
176 157 157 159 164 171 173 165 166 175 167 164 176 173 177 200 227 260 211 168 146 139 185 151 99 117 136 124 111 108 106 105 117 117 128 126 119 132 127 122 123 120 121
151 157 157 164 163 166 164 165 170 175 170 174 189 202 210 212 190 172 176 181 180 168 166 116 104 129 150 137 119 111 124 137 141 153 138 134 126 118 115 119 125 129 122
127 153 159 161 164 169 164 156 158 166 168 170 194 201 191 164 160 159 175 172 174 158 144 140 113 148 139 142 122 112 117 145 167 171 171 158 148 138 148 157 164 153 158
118 143 157 169 170 174 175 169 174 174 170 170 183 175 170 174 175 181 184 182 172 155 160 167 152 165 194 186 154 146 160 175 203 201 194 174 161 153 164 176 169 172 189
144 157 166 168 172 174 175 169 161 157 155 172 188 186 180 180 191 203 203 191 179 161 166 177 242 238 251 227 220 186 129 215 151 222 214 201 188 180 180 150 170 201 203
170 173 173 175 176 179 177 171 170 167 170 194 195 182 178 193 205 195 185 187 183 256 277 273 272 270 278 297 299 321 277 217 182 202 231 223 216 212 213 204 191 204 216
177 176 175 176 177 175 176 178 175 175 184 186 181 178 184 193 187 174 182 207 190 180 167 227 239 246 254 256 292 321 313 299 237 134 227 226 217 214 214 210 197 197 212
177 177 178 179 178 180 178 178 175 182 182 174 175 179 184 189 174 182 190 181 179 192 233 259 237 245 248 253 270 298 325 317 336 269 130 208 258 218 209 211 212 201 214